Time,TemperatureF,DewpointF,PressureIn,WindDirection,WindDirectionDegrees,WindSpeedMPH,WindSpeedGustMPH,Humidity,HourlyPrecipIn,Conditions,Clouds,dailyrainin,SoftwareType,DateUTC
2013-01-20 00:03:00,48.7,19.9,30.26,North,0,0.0,0.0,32,0.00,,,0.00,WUHU216DAVISVP2,2013-01-20 07:03:00,
2013-01-20 00:08:00,48.7,19.9,30.26,North,0,0.0,0.0,32,0.00,,,0.00,WUHU216DAVISVP2,2013-01-20 07:08:00,
2013-01-20 00:13:00,48.6,19.8,30.26,North,0,0.0,0.0,32,0.00,,,0.00,WUHU216DAVISVP2,2013-01-20 07:13:00,
2013-01-20 00:18:00,48.4,19.6,30.26,North,0,0.0,0.0,32,0.00,,,0.00,WUHU216DAVISVP2,2013-01-20 07:18:00,
2013-01-20 00:23:00,48.3,19.6,30.26,North,0,0.0,0.0,32,0.00,,,0.00,WUHU216DAVISVP2,2013-01-20 07:23:00,
2013-01-20 00:28:00,48.1,19.4,30.26,North,0,0.0,0.0,32,0.00,,,0.00,WUHU216DAVISVP2,2013-01-20 07:28:00,
2013-01-20 00:33:00,46.2,19.1,30.26,North,0,0.0,0.0,34,0.00,,,0.00,WUHU216DAVISVP2,2013-01-20 07:33:00,
2013-01-20 00:38:00,44.2,18.7,30.26,North,0,0.0,0.0,36,0.00,,,0.00,WUHU216DAVISVP2,2013-01-20 07:38:00,
2013-01-20 00:43:00,43.1,19.0,30.26,North,0,0.0,0.0,38,0.00,,,0.00,WUHU216DAVISVP2,2013-01-20 07:43:00,
2013-01-20 00:48:00,42.9,19.4,30.26,North,0,0.0,0.0,39,0.00,,,0.00,WUHU216DAVISVP2,2013-01-20 07:48:00,
2013-01-20 00:53:00,42.9,19.4,30.26,North,0,0.0,0.0,39,0.00,,,0.00,WUHU216DAVISVP2,2013-01-20 07:53:00,
2013-01-20 00:58:00,43.3,19.2,30.26,North,0,0.0,0.0,38,0.00,,,0.00,WUHU216DAVISVP2,2013-01-20 07:58:00,
2013-01-20 01:03:00,43.6,19.4,30.25,North,0,0.0,0.0,38,0.00,,,0.00,WUHU216DAVISVP2,2013-01-20 08:03:00,
2013-01-20 01:08:00,43.6,19.4,30.26,North,0,0.0,0.0,38,0.00,,,0.00,WUHU216DAVISVP2,2013-01-20 08:08:00,
2013-01-20 01:14:00,43.0,18.9,30.25,North,0,0.0,0.0,38,0.00,,,0.00,WUHU216DAVISVP2,2013-01-20 08:14:00,
2013-01-20 01:19:00,42.5,19.1,30.25,North,0,0.0,0.0,39,0.00,,,0.00,WUHU216DAVISVP2,2013-01-20 08:19:00,
2013-01-20 01:24:00,42.2,19.4,30.25,North,0,0.0,0.0,40,0.00,,,0.00,WUHU216DAVISVP2,2013-01-20 08:24:00,
2013-01-20 01:29:00,42.6,19.2,30.25,North,0,0.0,0.0,39,0.00,,,0.00,WUHU216DAVISVP2,2013-01-20 08:29:00,
2013-01-20 01:34:00,43.3,19.8,30.25,North,0,0.0,0.0,39,0.00,,,0.00,WUHU216DAVISVP2,2013-01-20 08:34:00,
2013-01-20 01:39:00,44.5,19.6,30.25,North,0,0.0,0.0,37,0.00,,,0.00,WUHU216DAVISVP2,2013-01-20 08:39:00,
2013-01-20 01:44:00,43.4,19.3,30.25,North,0,0.0,0.0,38,0.00,,,0.00,WUHU216DAVISVP2,2013-01-20 08:44:00,
2013-01-20 01:49:00,42.8,19.3,30.25,North,0,0.0,0.0,39,0.00,,,0.00,WUHU216DAVISVP2,2013-01-20 08:49:00,
2013-01-20 01:54:00,43.0,19.5,30.25,North,0,0.0,0.0,39,0.00,,,0.00,WUHU216DAVISVP2,2013-01-20 08:54:00,
2013-01-20 01:59:00,43.7,19.5,30.25,North,0,0.0,0.0,38,0.00,,,0.00,WUHU216DAVISVP2,2013-01-20 08:59:00,
2013-01-20 02:04:00,44.4,19.5,30.25,North,0,0.0,0.0,37,0.00,,,0.00,WUHU216DAVISVP2,2013-01-20 09:04:00,
2013-01-20 02:09:00,43.6,19.4,30.25,North,0,0.0,0.0,38,0.00,,,0.00,WUHU216DAVISVP2,2013-01-20 09:09:00,
2013-01-20 02:14:00,42.9,19.4,30.25,North,0,0.0,0.0,39,0.00,,,0.00,WUHU216DAVISVP2,2013-01-20 09:14:00,
2013-01-20 02:19:00,42.4,19.6,30.25,North,0,0.0,0.0,40,0.00,,,0.00,WUHU216DAVISVP2,2013-01-20 09:19:00,
2013-01-20 02:24:00,42.1,19.3,30.25,North,0,0.0,0.0,40,0.00,,,0.00,WUHU216DAVISVP2,2013-01-20 09:24:00,
2013-01-20 02:30:00,42.0,19.2,30.25,North,0,0.0,0.0,40,0.00,,,0.00,WUHU216DAVISVP2,2013-01-20 09:30:00,
2013-01-20 02:35:00,42.4,19.6,30.25,North,0,0.0,0.0,40,0.00,,,0.00,WUHU216DAVISVP2,2013-01-20 09:35:00,
2013-01-20 02:40:00,43.0,19.5,30.24,North,0,0.0,0.0,39,0.00,,,0.00,WUHU216DAVISVP2,2013-01-20 09:40:00,
2013-01-20 02:45:00,43.1,19.6,30.25,North,0,0.0,0.0,39,0.00,,,0.00,WUHU216DAVISVP2,2013-01-20 09:45:00,
2013-01-20 02:50:00,42.6,19.2,30.25,North,0,0.0,0.0,39,0.00,,,0.00,WUHU216DAVISVP2,2013-01-20 09:50:00,
2013-01-20 02:55:00,42.8,19.3,30.24,North,0,0.0,0.0,39,0.00,,,0.00,WUHU216DAVISVP2,2013-01-20 09:55:00,
2013-01-20 03:00:00,43.0,19.5,30.24,North,0,0.0,0.0,39,0.00,,,0.00,WUHU216DAVISVP2,2013-01-20 10:00:00,
2013-01-20 03:05:00,43.3,19.8,30.24,North,0,0.0,0.0,39,0.00,,,0.00,WUHU216DAVISVP2,2013-01-20 10:05:00,
2013-01-20 03:10:00,43.4,19.9,30.24,North,0,0.0,0.0,39,0.00,,,0.00,WUHU216DAVISVP2,2013-01-20 10:10:00,
2013-01-20 03:15:00,43.6,20.1,30.24,North,0,0.0,0.0,39,0.00,,,0.00,WUHU216DAVISVP2,2013-01-20 10:15:00,
2013-01-20 03:20:00,44.2,20.6,30.24,North,0,0.0,0.0,39,0.00,,,0.00,WUHU216DAVISVP2,2013-01-20 10:20:00,
2013-01-20 03:25:00,44.8,20.5,30.23,North,0,0.0,0.0,38,0.00,,,0.00,WUHU216DAVISVP2,2013-01-20 10:25:00,
2013-01-20 03:31:00,45.1,20.1,30.23,North,0,0.0,0.0,37,0.00,,,0.00,WUHU216DAVISVP2,2013-01-20 10:31:00,
2013-01-20 03:36:00,45.4,20.4,30.23,North,0,0.0,0.0,37,0.00,,,0.00,WUHU216DAVISVP2,2013-01-20 10:36:00,
2013-01-20 03:41:00,45.7,20.0,30.23,North,0,0.0,0.0,36,0.00,,,0.00,WUHU216DAVISVP2,2013-01-20 10:41:00,
2013-01-20 03:46:00,46.2,20.5,30.23,North,0,0.0,0.0,36,0.00,,,0.00,WUHU216DAVISVP2,2013-01-20 10:46:00,
2013-01-20 03:51:00,46.5,20.1,30.23,North,0,0.0,0.0,35,0.00,,,0.00,WUHU216DAVISVP2,2013-01-20 10:51:00,
2013-01-20 03:56:00,46.4,20.0,30.23,North,0,0.0,0.0,35,0.00,,,0.00,WUHU216DAVISVP2,2013-01-20 10:56:00,
2013-01-20 04:01:00,46.4,20.0,30.23,North,0,0.0,0.0,35,0.00,,,0.00,WUHU216DAVISVP2,2013-01-20 11:01:00,
2013-01-20 04:06:00,46.3,19.9,30.23,North,0,0.0,0.0,35,0.00,,,0.00,WUHU216DAVISVP2,2013-01-20 11:06:00,
2013-01-20 04:11:00,46.4,20.0,30.22,North,0,0.0,0.0,35,0.00,,,0.00,WUHU216DAVISVP2,2013-01-20 11:11:00,
2013-01-20 04:16:00,46.5,20.1,30.22,North,0,0.0,0.0,35,0.00,,,0.00,WUHU216DAVISVP2,2013-01-20 11:16:00,
2013-01-20 04:21:00,45.7,20.0,30.22,North,0,0.0,0.0,36,0.00,,,0.00,WUHU216DAVISVP2,2013-01-20 11:21:00,
2013-01-20 04:26:00,44.9,20.0,30.22,North,0,0.0,0.0,37,0.00,,,0.00,WUHU216DAVISVP2,2013-01-20 11:26:00,
2013-01-20 04:32:00,44.4,20.2,30.22,North,0,0.0,0.0,38,0.00,,,0.00,WUHU216DAVISVP2,2013-01-20 11:32:00,
2013-01-20 04:37:00,44.6,20.3,30.22,North,0,0.0,0.0,38,0.00,,,0.00,WUHU216DAVISVP2,2013-01-20 11:37:00,
2013-01-20 04:42:00,45.1,20.1,30.21,North,0,0.0,0.0,37,0.00,,,0.00,WUHU216DAVISVP2,2013-01-20 11:42:00,
2013-01-20 04:47:00,45.4,21.0,30.21,North,0,0.0,0.0,38,0.00,,,0.00,WUHU216DAVISVP2,2013-01-20 11:47:00,
2013-01-20 04:52:00,45.3,21.0,30.21,North,0,0.0,0.0,38,0.00,,,0.00,WUHU216DAVISVP2,2013-01-20 11:52:00,
2013-01-20 04:57:00,45.3,21.0,30.21,North,0,0.0,0.0,38,0.00,,,0.00,WUHU216DAVISVP2,2013-01-20 11:57:00,
2013-01-20 05:02:00,44.7,21.0,30.21,North,0,0.0,0.0,39,0.00,,,0.00,WUHU216DAVISVP2,2013-01-20 12:02:00,
2013-01-20 05:07:00,44.6,21.0,30.21,North,0,0.0,0.0,39,0.00,,,0.00,WUHU216DAVISVP2,2013-01-20 12:07:00,
2013-01-20 05:12:00,44.7,21.0,30.21,North,0,0.0,0.0,39,0.00,,,0.00,WUHU216DAVISVP2,2013-01-20 12:12:00,
2013-01-20 05:17:00,44.6,21.0,30.21,North,0,0.0,0.0,39,0.00,,,0.00,WUHU216DAVISVP2,2013-01-20 12:17:00,
2013-01-20 05:22:00,44.1,21.1,30.21,North,0,0.0,0.0,40,0.00,,,0.00,WUHU216DAVISVP2,2013-01-20 12:22:00,
2013-01-20 05:27:00,43.8,21.4,30.21,North,0,0.0,0.0,41,0.00,,,0.00,WUHU216DAVISVP2,2013-01-20 12:27:00,
2013-01-20 05:32:00,43.7,21.3,30.21,North,0,0.0,0.0,41,0.00,,,0.00,WUHU216DAVISVP2,2013-01-20 12:32:00,
2013-01-20 05:37:00,43.7,21.3,30.21,North,0,0.0,0.0,41,0.00,,,0.00,WUHU216DAVISVP2,2013-01-20 12:37:00,
2013-01-20 05:43:00,44.3,21.3,30.21,North,0,0.0,0.0,40,0.00,,,0.00,WUHU216DAVISVP2,2013-01-20 12:43:00,
2013-01-20 05:48:00,44.6,21.0,30.21,North,0,0.0,0.0,39,0.00,,,0.00,WUHU216DAVISVP2,2013-01-20 12:48:00,
2013-01-20 05:53:00,44.5,21.5,30.21,North,0,0.0,0.0,40,0.00,,,0.00,WUHU216DAVISVP2,2013-01-20 12:53:00,
2013-01-20 05:58:00,44.7,21.7,30.21,North,0,0.0,0.0,40,0.00,,,0.00,WUHU216DAVISVP2,2013-01-20 12:58:00,
2013-01-20 06:03:00,44.8,21.7,30.21,North,0,0.0,0.0,40,0.00,,,0.00,WUHU216DAVISVP2,2013-01-20 13:03:00,
2013-01-20 06:08:00,44.8,21.7,30.20,North,0,0.0,0.0,40,0.00,,,0.00,WUHU216DAVISVP2,2013-01-20 13:08:00,
2013-01-20 06:13:00,44.6,21.6,30.20,North,0,0.0,0.0,40,0.00,,,0.00,WUHU216DAVISVP2,2013-01-20 13:13:00,
2013-01-20 06:18:00,44.6,22.2,30.21,North,0,0.0,0.0,41,0.00,,,0.00,WUHU216DAVISVP2,2013-01-20 13:18:00,
2013-01-20 06:23:00,44.6,22.2,30.20,North,0,0.0,0.0,41,0.00,,,0.00,WUHU216DAVISVP2,2013-01-20 13:23:00,
2013-01-20 06:28:00,44.8,21.7,30.20,North,0,0.0,0.0,40,0.00,,,0.00,WUHU216DAVISVP2,2013-01-20 13:28:00,
2013-01-20 06:33:00,44.8,21.7,30.21,North,0,0.0,0.0,40,0.00,,,0.00,WUHU216DAVISVP2,2013-01-20 13:33:00,
2013-01-20 06:38:00,44.6,22.2,30.21,North,0,0.0,0.0,41,0.00,,,0.00,WUHU216DAVISVP2,2013-01-20 13:38:00,
2013-01-20 06:43:00,44.5,22.1,30.20,North,0,0.0,0.0,41,0.00,,,0.00,WUHU216DAVISVP2,2013-01-20 13:43:00,
2013-01-20 06:48:00,44.4,22.0,30.21,North,0,0.0,0.0,41,0.00,,,0.00,WUHU216DAVISVP2,2013-01-20 13:48:00,
2013-01-20 06:53:00,44.5,22.7,30.20,North,0,0.0,0.0,42,0.00,,,0.00,WUHU216DAVISVP2,2013-01-20 13:53:00,
2013-01-20 06:59:00,44.8,22.3,30.20,North,0,0.0,0.0,41,0.00,,,0.00,WUHU216DAVISVP2,2013-01-20 13:59:00,
2013-01-20 07:04:00,44.8,22.3,30.21,North,0,0.0,0.0,41,0.00,,,0.00,WUHU216DAVISVP2,2013-01-20 14:04:00,
2013-01-20 07:09:00,44.8,22.3,30.21,North,0,0.0,0.0,41,0.00,,,0.00,WUHU216DAVISVP2,2013-01-20 14:09:00,
2013-01-20 07:14:00,44.7,22.2,30.20,North,0,0.0,0.0,41,0.00,,,0.00,WUHU216DAVISVP2,2013-01-20 14:14:00,
2013-01-20 07:19:00,44.6,22.7,30.20,North,0,0.0,0.0,42,0.00,,,0.00,WUHU216DAVISVP2,2013-01-20 14:19:00,
2013-01-20 07:24:00,45.0,22.5,30.20,North,0,0.0,0.0,41,0.00,,,0.00,WUHU216DAVISVP2,2013-01-20 14:24:00,
2013-01-20 07:29:00,45.1,22.6,30.20,North,0,0.0,0.0,41,0.00,,,0.00,WUHU216DAVISVP2,2013-01-20 14:29:00,
2013-01-20 07:34:00,45.6,23.1,30.20,North,0,0.0,0.0,41,0.00,,,0.00,WUHU216DAVISVP2,2013-01-20 14:34:00,
2013-01-20 07:39:00,46.0,23.4,30.20,North,0,0.0,0.0,41,0.00,,,0.00,WUHU216DAVISVP2,2013-01-20 14:39:00,
2013-01-20 07:44:00,46.7,23.5,30.20,North,0,0.0,0.0,40,0.00,,,0.00,WUHU216DAVISVP2,2013-01-20 14:44:00,
2013-01-20 07:49:00,47.5,23.6,30.20,North,0,0.0,0.0,39,0.00,,,0.00,WUHU216DAVISVP2,2013-01-20 14:49:00,
2013-01-20 07:54:00,48.3,23.6,30.20,North,0,0.0,0.0,38,0.00,,,0.00,WUHU216DAVISVP2,2013-01-20 14:54:00,
2013-01-20 07:59:00,49.1,24.4,30.20,North,0,0.0,0.0,38,0.00,,,0.00,WUHU216DAVISVP2,2013-01-20 14:59:00,
2013-01-20 08:04:00,50.0,24.5,30.20,North,0,0.0,0.0,37,0.00,,,0.00,WUHU216DAVISVP2,2013-01-20 15:04:00,
2013-01-20 08:09:00,50.8,24.6,30.20,North,0,0.0,0.0,36,0.00,,,0.00,WUHU216DAVISVP2,2013-01-20 15:09:00,
2013-01-20 08:14:00,51.8,25.5,30.20,North,0,0.0,0.0,36,0.00,,,0.00,WUHU216DAVISVP2,2013-01-20 15:14:00,
2013-01-20 08:20:00,52.8,25.0,30.20,North,0,0.0,0.0,34,0.00,,,0.00,WUHU216DAVISVP2,2013-01-20 15:20:00,
2013-01-20 08:25:00,53.7,25.0,30.20,North,0,0.0,0.0,33,0.00,,,0.00,WUHU216DAVISVP2,2013-01-20 15:25:00,
2013-01-20 08:30:00,54.5,25.0,30.20,North,0,0.0,0.0,32,0.00,,,0.00,WUHU216DAVISVP2,2013-01-20 15:30:00,
2013-01-20 08:35:00,55.2,24.9,30.20,ENE,57,2.0,2.0,31,0.00,,,0.00,WUHU216DAVISVP2,2013-01-20 15:35:00,
2013-01-20 08:40:00,55.5,24.3,30.20,NE,54,2.0,5.0,30,0.00,,,0.00,WUHU216DAVISVP2,2013-01-20 15:40:00,
2013-01-20 08:45:00,55.8,24.6,30.20,ENE,70,2.0,3.0,30,0.00,,,0.00,WUHU216DAVISVP2,2013-01-20 15:45:00,
2013-01-20 08:50:00,56.1,24.1,30.20,ENE,65,2.0,5.0,29,0.00,,,0.00,WUHU216DAVISVP2,2013-01-20 15:50:00,
2013-01-20 08:55:00,56.2,24.1,30.20,East,81,3.0,6.0,29,0.00,,,0.00,WUHU216DAVISVP2,2013-01-20 15:55:00,
2013-01-20 09:00:00,56.1,24.1,30.20,ENE,69,3.0,5.0,29,0.00,,,0.00,WUHU216DAVISVP2,2013-01-20 16:00:00,
2013-01-20 09:05:00,56.2,24.1,30.20,East,99,3.0,6.0,29,0.00,,,0.00,WUHU216DAVISVP2,2013-01-20 16:05:00,
2013-01-20 09:10:00,56.3,24.2,30.20,East,98,2.0,6.0,29,0.00,,,0.00,WUHU216DAVISVP2,2013-01-20 16:10:00,
2013-01-20 09:15:00,56.4,24.3,30.20,East,92,2.0,5.0,29,0.00,,,0.00,WUHU216DAVISVP2,2013-01-20 16:15:00,
2013-01-20 09:20:00,56.7,24.6,30.20,East,88,2.0,5.0,29,0.00,,,0.00,WUHU216DAVISVP2,2013-01-20 16:20:00,
2013-01-20 09:26:00,57.0,24.0,30.20,East,89,2.0,6.0,28,0.00,,,0.00,WUHU216DAVISVP2,2013-01-20 16:26:00,
2013-01-20 09:31:00,56.9,23.9,30.21,East,82,2.0,5.0,28,0.00,,,0.00,WUHU216DAVISVP2,2013-01-20 16:31:00,
2013-01-20 09:36:00,57.1,24.1,30.20,East,87,4.0,7.0,28,0.00,,,0.00,WUHU216DAVISVP2,2013-01-20 16:36:00,
2013-01-20 09:41:00,57.3,24.3,30.20,ENE,75,4.0,7.0,28,0.00,,,0.00,WUHU216DAVISVP2,2013-01-20 16:41:00,
2013-01-20 09:46:00,57.3,24.3,30.20,East,84,3.0,7.0,28,0.00,,,0.00,WUHU216DAVISVP2,2013-01-20 16:46:00,
2013-01-20 09:51:00,57.3,24.3,30.20,East,84,3.0,7.0,28,0.00,,,0.00,WUHU216DAVISVP2,2013-01-20 16:51:00,
2013-01-20 09:56:00,57.5,24.4,30.20,East,82,4.0,7.0,28,0.00,,,0.00,WUHU216DAVISVP2,2013-01-20 16:56:00,
2013-01-20 10:01:00,57.9,23.9,30.20,East,95,4.0,8.0,27,0.00,,,0.00,WUHU216DAVISVP2,2013-01-20 17:01:00,
2013-01-20 10:06:00,58.0,24.9,30.20,ESE,122,4.0,7.0,28,0.00,,,0.00,WUHU216DAVISVP2,2013-01-20 17:06:00,
2013-01-20 10:11:00,58.4,24.4,30.20,ESE,105,3.0,5.0,27,0.00,,,0.00,WUHU216DAVISVP2,2013-01-20 17:11:00,
2013-01-20 10:16:00,58.7,24.6,30.20,East,97,4.0,7.0,27,0.00,,,0.00,WUHU216DAVISVP2,2013-01-20 17:16:00,
2013-01-20 10:21:00,58.7,24.6,30.20,ESE,105,4.0,8.0,27,0.00,,,0.00,WUHU216DAVISVP2,2013-01-20 17:21:00,
2013-01-20 10:26:00,58.9,24.8,30.20,ESE,106,4.0,8.0,27,0.00,,,0.00,WUHU216DAVISVP2,2013-01-20 17:26:00,
2013-01-20 10:31:00,59.0,24.9,30.20,ESE,108,2.0,4.0,27,0.00,,,0.00,WUHU216DAVISVP2,2013-01-20 17:31:00,
2013-01-20 10:36:00,59.6,24.5,30.20,ESE,110,4.0,8.0,26,0.00,,,0.00,WUHU216DAVISVP2,2013-01-20 17:36:00,
2013-01-20 10:41:00,59.9,25.6,30.20,ESE,118,4.0,7.0,27,0.00,,,0.00,WUHU216DAVISVP2,2013-01-20 17:41:00,
2013-01-20 10:47:00,59.9,24.7,30.20,ESE,108,5.0,8.0,26,0.00,,,0.00,WUHU216DAVISVP2,2013-01-20 17:47:00,
2013-01-20 10:52:00,59.8,24.7,30.20,ESE,121,5.0,8.0,26,0.00,,,0.00,WUHU216DAVISVP2,2013-01-20 17:52:00,
2013-01-20 10:57:00,60.0,25.7,30.20,ESE,119,4.0,9.0,27,0.00,,,0.00,WUHU216DAVISVP2,2013-01-20 17:57:00,
2013-01-20 11:02:00,60.4,25.2,30.20,SE,124,4.0,9.0,26,0.00,,,0.00,WUHU216DAVISVP2,2013-01-20 18:02:00,
2013-01-20 11:07:00,60.5,25.3,30.20,East,99,5.0,9.0,26,0.00,,,0.00,WUHU216DAVISVP2,2013-01-20 18:07:00,
2013-01-20 11:12:00,60.5,25.3,30.19,ESE,112,4.0,8.0,26,0.00,,,0.00,WUHU216DAVISVP2,2013-01-20 18:12:00,
2013-01-20 11:17:00,60.7,25.4,30.19,ESE,102,4.0,10.0,26,0.00,,,0.00,WUHU216DAVISVP2,2013-01-20 18:17:00,
2013-01-20 11:22:00,60.2,25.9,30.19,ESE,119,5.0,10.0,27,0.00,,,0.00,WUHU216DAVISVP2,2013-01-20 18:22:00,
2013-01-20 11:27:00,60.5,25.3,30.19,SE,133,4.0,8.0,26,0.00,,,0.00,WUHU216DAVISVP2,2013-01-20 18:27:00,
2013-01-20 11:32:00,61.0,24.8,30.18,ESE,115,4.0,8.0,25,0.00,,,0.00,WUHU216DAVISVP2,2013-01-20 18:32:00,
2013-01-20 11:37:00,60.8,25.5,30.18,East,85,5.0,9.0,26,0.00,,,0.00,WUHU216DAVISVP2,2013-01-20 18:37:00,
2013-01-20 11:42:00,61.1,25.8,30.18,ESE,112,3.0,8.0,26,0.00,,,0.00,WUHU216DAVISVP2,2013-01-20 18:42:00,
2013-01-20 11:47:00,60.9,25.6,30.18,ESE,107,4.0,7.0,26,0.00,,,0.00,WUHU216DAVISVP2,2013-01-20 18:47:00,
2013-01-20 11:52:00,61.1,25.8,30.18,ESE,106,3.0,8.0,26,0.00,,,0.00,WUHU216DAVISVP2,2013-01-20 18:52:00,
2013-01-20 11:57:00,61.2,26.8,30.17,SE,135,3.0,7.0,27,0.00,,,0.00,WUHU216DAVISVP2,2013-01-20 18:57:00,
2013-01-20 12:02:00,61.7,26.3,30.17,SE,138,3.0,7.0,26,0.00,,,0.00,WUHU216DAVISVP2,2013-01-20 19:02:00,
2013-01-20 12:08:00,61.8,26.4,30.17,ESE,111,4.0,9.0,26,0.00,,,0.00,WUHU216DAVISVP2,2013-01-20 19:08:00,
2013-01-20 12:13:00,61.8,27.3,30.17,SE,127,4.0,8.0,27,0.00,,,0.00,WUHU216DAVISVP2,2013-01-20 19:13:00,
2013-01-20 12:18:00,61.8,26.4,30.16,SE,137,3.0,6.0,26,0.00,,,0.00,WUHU216DAVISVP2,2013-01-20 19:18:00,
2013-01-20 12:23:00,62.0,27.4,30.16,ESE,121,4.0,9.0,27,0.00,,,0.00,WUHU216DAVISVP2,2013-01-20 19:23:00,
2013-01-20 12:28:00,61.9,27.4,30.15,SE,137,4.0,10.0,27,0.00,,,0.00,WUHU216DAVISVP2,2013-01-20 19:28:00,
2013-01-20 12:33:00,62.0,27.4,30.15,ESE,108,3.0,7.0,27,0.00,,,0.00,WUHU216DAVISVP2,2013-01-20 19:33:00,
2013-01-20 12:38:00,61.9,27.4,30.15,SE,134,3.0,5.0,27,0.00,,,0.00,WUHU216DAVISVP2,2013-01-20 19:38:00,
2013-01-20 12:43:00,62.5,27.9,30.14,SE,137,3.0,6.0,27,0.00,,,0.00,WUHU216DAVISVP2,2013-01-20 19:43:00,
2013-01-20 12:48:00,62.4,27.8,30.14,SE,127,4.0,8.0,27,0.00,,,0.00,WUHU216DAVISVP2,2013-01-20 19:48:00,
2013-01-20 12:53:00,62.3,27.7,30.13,ESE,122,4.0,7.0,27,0.00,,,0.00,WUHU216DAVISVP2,2013-01-20 19:53:00,
2013-01-20 12:58:00,62.5,27.9,30.13,SE,128,4.0,7.0,27,0.00,,,0.00,WUHU216DAVISVP2,2013-01-20 19:58:00,
2013-01-20 13:03:00,62.6,28.0,30.13,ESE,118,3.0,8.0,27,0.00,,,0.00,WUHU216DAVISVP2,2013-01-20 20:03:00,
2013-01-20 13:08:00,62.6,27.1,30.12,SE,126,3.0,6.0,26,0.00,,,0.00,WUHU216DAVISVP2,2013-01-20 20:08:00,
2013-01-20 13:13:00,62.7,28.9,30.12,SE,137,5.0,8.0,28,0.00,,,0.00,WUHU216DAVISVP2,2013-01-20 20:13:00,
2013-01-20 13:18:00,62.7,28.9,30.12,SE,139,4.0,6.0,28,0.00,,,0.00,WUHU216DAVISVP2,2013-01-20 20:18:00,
2013-01-20 13:23:00,63.0,29.2,30.12,SE,133,4.0,7.0,28,0.00,,,0.00,WUHU216DAVISVP2,2013-01-20 20:23:00,
2013-01-20 13:28:00,63.1,28.4,30.11,SE,132,4.0,7.0,27,0.00,,,0.00,WUHU216DAVISVP2,2013-01-20 20:28:00,
2013-01-20 13:34:00,63.3,29.4,30.11,ESE,122,5.0,9.0,28,0.00,,,0.00,WUHU216DAVISVP2,2013-01-20 20:34:00,
2013-01-20 13:39:00,63.1,29.3,30.11,ESE,114,3.0,6.0,28,0.00,,,0.00,WUHU216DAVISVP2,2013-01-20 20:39:00,
2013-01-20 13:44:00,63.6,29.7,30.10,SE,142,3.0,5.0,28,0.00,,,0.00,WUHU216DAVISVP2,2013-01-20 20:44:00,
2013-01-20 13:49:00,63.7,29.8,30.10,East,96,4.0,7.0,28,0.00,,,0.00,WUHU216DAVISVP2,2013-01-20 20:49:00,
2013-01-20 13:54:00,63.9,30.0,30.10,SE,140,3.0,6.0,28,0.00,,,0.00,WUHU216DAVISVP2,2013-01-20 20:54:00,
2013-01-20 13:59:00,63.9,30.0,30.10,SSE,166,3.0,7.0,28,0.00,,,0.00,WUHU216DAVISVP2,2013-01-20 20:59:00,
2013-01-20 14:04:00,64.4,30.4,30.10,SSE,165,4.0,8.0,28,0.00,,,0.00,WUHU216DAVISVP2,2013-01-20 21:04:00,
2013-01-20 14:09:00,64.2,30.2,30.10,SE,142,4.0,5.0,28,0.00,,,0.00,WUHU216DAVISVP2,2013-01-20 21:09:00,
2013-01-20 14:14:00,64.4,30.4,30.10,South,173,2.0,4.0,28,0.00,,,0.00,WUHU216DAVISVP2,2013-01-20 21:14:00,
2013-01-20 14:19:00,64.8,29.9,30.10,SSE,154,3.0,5.0,27,0.00,,,0.00,WUHU216DAVISVP2,2013-01-20 21:19:00,
2013-01-20 14:24:00,64.8,29.9,30.09,SE,133,4.0,8.0,27,0.00,,,0.00,WUHU216DAVISVP2,2013-01-20 21:24:00,
2013-01-20 14:29:00,64.9,29.9,30.09,WSW,256,2.0,3.0,27,0.00,,,0.00,WUHU216DAVISVP2,2013-01-20 21:29:00,
2013-01-20 14:34:00,65.1,30.1,30.09,SE,132,2.0,3.0,27,0.00,,,0.00,WUHU216DAVISVP2,2013-01-20 21:34:00,
2013-01-20 14:39:00,64.8,29.9,30.09,SE,142,4.0,7.0,27,0.00,,,0.00,WUHU216DAVISVP2,2013-01-20 21:39:00,
2013-01-20 14:44:00,64.7,29.8,30.09,SE,144,3.0,8.0,27,0.00,,,0.00,WUHU216DAVISVP2,2013-01-20 21:44:00,
2013-01-20 14:49:00,64.8,29.9,30.09,ESE,110,1.0,1.0,27,0.00,,,0.00,WUHU216DAVISVP2,2013-01-20 21:49:00,
2013-01-20 14:55:00,64.9,29.9,30.08,SE,127,2.0,4.0,27,0.00,,,0.00,WUHU216DAVISVP2,2013-01-20 21:55:00,
2013-01-20 15:00:00,64.9,29.9,30.08,SE,124,4.0,7.0,27,0.00,,,0.00,WUHU216DAVISVP2,2013-01-20 22:00:00,
2013-01-20 15:05:00,64.9,29.9,30.08,SE,145,3.0,5.0,27,0.00,,,0.00,WUHU216DAVISVP2,2013-01-20 22:05:00,
2013-01-20 15:10:00,64.9,29.9,30.08,East,84,1.0,1.0,27,0.00,,,0.00,WUHU216DAVISVP2,2013-01-20 22:10:00,
2013-01-20 15:15:00,65.3,29.4,30.07,North,0,0.0,0.0,26,0.00,,,0.00,WUHU216DAVISVP2,2013-01-20 22:15:00,
2013-01-20 15:20:00,65.8,28.9,30.07,WSW,256,3.0,5.0,25,0.00,,,0.00,WUHU216DAVISVP2,2013-01-20 22:20:00,
2013-01-20 15:25:00,65.8,29.8,30.07,East,101,2.0,3.0,26,0.00,,,0.00,WUHU216DAVISVP2,2013-01-20 22:25:00,
2013-01-20 15:30:00,65.9,29.9,30.07,North,0,0.0,0.0,26,0.00,,,0.00,WUHU216DAVISVP2,2013-01-20 22:30:00,
2013-01-20 15:35:00,65.8,29.8,30.07,SSE,147,3.0,5.0,26,0.00,,,0.00,WUHU216DAVISVP2,2013-01-20 22:35:00,
2013-01-20 15:40:00,65.5,29.5,30.07,SE,142,2.0,3.0,26,0.00,,,0.00,WUHU216DAVISVP2,2013-01-20 22:40:00,
2013-01-20 15:45:00,65.6,29.6,30.07,North,0,0.0,0.0,26,0.00,,,0.00,WUHU216DAVISVP2,2013-01-20 22:45:00,
2013-01-20 15:50:00,65.9,29.9,30.07,North,0,0.0,0.0,26,0.00,,,0.00,WUHU216DAVISVP2,2013-01-20 22:50:00,
2013-01-20 15:55:00,66.6,29.5,30.07,North,0,0.0,0.0,25,0.00,,,0.00,WUHU216DAVISVP2,2013-01-20 22:55:00,
2013-01-20 16:01:00,67.0,29.9,30.07,SW,219,2.0,3.0,25,0.00,,,0.00,WUHU216DAVISVP2,2013-01-20 23:01:00,
2013-01-20 16:06:00,66.5,29.4,30.07,SSW,199,2.0,3.0,25,0.00,,,0.00,WUHU216DAVISVP2,2013-01-20 23:06:00,
2013-01-20 16:11:00,65.7,29.7,30.07,SE,137,2.0,4.0,26,0.00,,,0.00,WUHU216DAVISVP2,2013-01-20 23:11:00,
2013-01-20 16:16:00,64.9,29.9,30.07,SSE,149,2.0,4.0,27,0.00,,,0.00,WUHU216DAVISVP2,2013-01-20 23:16:00,
2013-01-20 16:21:00,64.6,29.7,30.07,SE,134,1.0,1.0,27,0.00,,,0.00,WUHU216DAVISVP2,2013-01-20 23:21:00,
2013-01-20 16:26:00,64.5,29.6,30.07,SSE,152,2.0,3.0,27,0.00,,,0.00,WUHU216DAVISVP2,2013-01-20 23:26:00,
2013-01-20 16:31:00,64.0,29.2,30.07,North,0,0.0,0.0,27,0.00,,,0.00,WUHU216DAVISVP2,2013-01-20 23:31:00,
2013-01-20 16:36:00,63.6,29.7,30.07,North,0,0.0,0.0,28,0.00,,,0.00,WUHU216DAVISVP2,2013-01-20 23:36:00,
2013-01-20 16:41:00,63.3,29.4,30.07,North,0,0.0,0.0,28,0.00,,,0.00,WUHU216DAVISVP2,2013-01-20 23:41:00,
2013-01-20 16:47:00,63.0,29.2,30.07,North,0,0.0,0.0,28,0.00,,,0.00,WUHU216DAVISVP2,2013-01-20 23:47:00,
2013-01-20 16:52:00,62.7,28.9,30.07,North,0,0.0,0.0,28,0.00,,,0.00,WUHU216DAVISVP2,2013-01-20 23:52:00,
2013-01-20 16:57:00,62.2,29.3,30.07,ENE,68,2.0,2.0,29,0.00,,,0.00,WUHU216DAVISVP2,2013-01-20 23:57:00,
2013-01-20 17:02:00,61.5,29.6,30.07,NE,52,2.0,3.0,30,0.00,,,0.00,WUHU216DAVISVP2,2013-01-21 00:02:00,
2013-01-20 17:07:00,60.9,29.0,30.07,North,0,0.0,0.0,30,0.00,,,0.00,WUHU216DAVISVP2,2013-01-21 00:07:00,
2013-01-20 17:12:00,60.4,28.6,30.07,North,0,0.0,0.0,30,0.00,,,0.00,WUHU216DAVISVP2,2013-01-21 00:12:00,
2013-01-20 17:17:00,60.0,29.0,30.07,North,0,0.0,0.0,31,0.00,,,0.00,WUHU216DAVISVP2,2013-01-21 00:17:00,
2013-01-20 17:22:00,59.6,28.7,30.08,North,0,0.0,0.0,31,0.00,,,0.00,WUHU216DAVISVP2,2013-01-21 00:22:00,
2013-01-20 17:27:00,59.0,28.9,30.07,North,0,0.0,0.0,32,0.00,,,0.00,WUHU216DAVISVP2,2013-01-21 00:27:00,
2013-01-20 17:32:00,58.4,28.4,30.08,North,0,0.0,0.0,32,0.00,,,0.00,WUHU216DAVISVP2,2013-01-21 00:32:00,
2013-01-20 17:37:00,57.8,27.9,30.08,North,0,0.0,0.0,32,0.00,,,0.00,WUHU216DAVISVP2,2013-01-21 00:37:00,
2013-01-20 17:43:00,57.3,28.2,30.08,North,0,0.0,0.0,33,0.00,,,0.00,WUHU216DAVISVP2,2013-01-21 00:43:00,
2013-01-20 17:48:00,56.6,27.6,30.08,North,0,0.0,0.0,33,0.00,,,0.00,WUHU216DAVISVP2,2013-01-21 00:48:00,
2013-01-20 17:53:00,55.8,28.3,30.08,North,0,0.0,0.0,35,0.00,,,0.00,WUHU216DAVISVP2,2013-01-21 00:53:00,
2013-01-20 17:58:00,55.2,27.8,30.08,North,0,0.0,0.0,35,0.00,,,0.00,WUHU216DAVISVP2,2013-01-21 00:58:00,
2013-01-20 18:03:00,54.8,28.1,30.08,North,0,0.0,0.0,36,0.00,,,0.00,WUHU216DAVISVP2,2013-01-21 01:03:00,
2013-01-20 18:08:00,54.3,27.7,30.08,North,0,0.0,0.0,36,0.00,,,0.00,WUHU216DAVISVP2,2013-01-21 01:08:00,
2013-01-20 18:13:00,53.8,27.9,30.08,North,0,0.0,0.0,37,0.00,,,0.00,WUHU216DAVISVP2,2013-01-21 01:13:00,
2013-01-20 18:18:00,53.2,28.0,30.08,North,0,0.0,0.0,38,0.00,,,0.00,WUHU216DAVISVP2,2013-01-21 01:18:00,
2013-01-20 18:23:00,52.8,28.3,30.08,North,0,0.0,0.0,39,0.00,,,0.00,WUHU216DAVISVP2,2013-01-21 01:23:00,
2013-01-20 18:28:00,52.6,28.1,30.08,North,0,0.0,0.0,39,0.00,,,0.00,WUHU216DAVISVP2,2013-01-21 01:28:00,
2013-01-20 18:33:00,52.3,27.9,30.08,North,0,0.0,0.0,39,0.00,,,0.00,WUHU216DAVISVP2,2013-01-21 01:33:00,
2013-01-20 18:38:00,52.0,28.2,30.08,North,0,0.0,0.0,40,0.00,,,0.00,WUHU216DAVISVP2,2013-01-21 01:38:00,
2013-01-20 18:43:00,51.7,28.0,30.08,North,0,0.0,0.0,40,0.00,,,0.00,WUHU216DAVISVP2,2013-01-21 01:43:00,
2013-01-20 18:48:00,51.6,28.5,30.08,North,0,0.0,0.0,41,0.00,,,0.00,WUHU216DAVISVP2,2013-01-21 01:48:00,
2013-01-20 18:53:00,51.5,28.4,30.09,North,0,0.0,0.0,41,0.00,,,0.00,WUHU216DAVISVP2,2013-01-21 01:53:00,
2013-01-20 18:58:00,51.4,28.3,30.09,North,0,0.0,0.0,41,0.00,,,0.00,WUHU216DAVISVP2,2013-01-21 01:58:00,
2013-01-20 19:04:00,51.4,28.3,30.09,North,0,0.0,0.0,41,0.00,,,0.00,WUHU216DAVISVP2,2013-01-21 02:04:00,
2013-01-20 19:09:00,51.6,28.5,30.08,North,7,1.0,1.0,41,0.00,,,0.00,WUHU216DAVISVP2,2013-01-21 02:09:00,
2013-01-20 19:14:00,51.9,28.1,30.09,North,0,0.0,0.0,40,0.00,,,0.00,WUHU216DAVISVP2,2013-01-21 02:14:00,
2013-01-20 19:19:00,51.8,27.4,30.09,North,0,0.0,0.0,39,0.00,,,0.00,WUHU216DAVISVP2,2013-01-21 02:19:00,
2013-01-20 19:24:00,51.6,27.2,30.09,North,0,0.0,0.0,39,0.00,,,0.00,WUHU216DAVISVP2,2013-01-21 02:24:00,
2013-01-20 19:29:00,51.5,27.2,30.09,North,0,0.0,0.0,39,0.00,,,0.00,WUHU216DAVISVP2,2013-01-21 02:29:00,
2013-01-20 19:34:00,51.5,27.2,30.09,North,0,0.0,0.0,39,0.00,,,0.00,WUHU216DAVISVP2,2013-01-21 02:34:00,
2013-01-20 19:39:00,51.3,27.0,30.09,North,0,0.0,0.0,39,0.00,,,0.00,WUHU216DAVISVP2,2013-01-21 02:39:00,
2013-01-20 19:44:00,51.3,27.0,30.09,North,0,0.0,0.0,39,0.00,,,0.00,WUHU216DAVISVP2,2013-01-21 02:44:00,
2013-01-20 19:49:00,52.0,27.0,30.09,North,0,0.0,0.0,38,0.00,,,0.00,WUHU216DAVISVP2,2013-01-21 02:49:00,
2013-01-20 19:54:00,52.7,27.6,30.09,NNE,24,2.0,2.0,38,0.00,,,0.00,WUHU216DAVISVP2,2013-01-21 02:54:00,
2013-01-20 19:59:00,53.0,27.9,30.10,North,0,0.0,0.0,38,0.00,,,0.00,WUHU216DAVISVP2,2013-01-21 02:59:00,
2013-01-20 20:04:00,53.3,28.1,30.10,North,0,0.0,0.0,38,0.00,,,0.00,WUHU216DAVISVP2,2013-01-21 03:04:00,
2013-01-20 20:09:00,53.4,28.2,30.10,North,5,1.0,1.0,38,0.00,,,0.00,WUHU216DAVISVP2,2013-01-21 03:09:00,
2013-01-20 20:14:00,53.8,27.9,30.10,North,0,2.0,4.0,37,0.00,,,0.00,WUHU216DAVISVP2,2013-01-21 03:14:00,
2013-01-20 20:19:00,53.8,27.9,30.10,North,0,0.0,0.0,37,0.00,,,0.00,WUHU216DAVISVP2,2013-01-21 03:19:00,
2013-01-20 20:25:00,53.2,27.4,30.10,North,0,0.0,0.0,37,0.00,,,0.00,WUHU216DAVISVP2,2013-01-21 03:25:00,
2013-01-20 20:30:00,52.3,27.2,30.10,North,0,0.0,0.0,38,0.00,,,0.00,WUHU216DAVISVP2,2013-01-21 03:30:00,
2013-01-20 20:35:00,51.6,27.9,30.10,North,0,0.0,0.0,40,0.00,,,0.00,WUHU216DAVISVP2,2013-01-21 03:35:00,
2013-01-20 20:40:00,51.3,27.6,30.10,North,0,0.0,0.0,40,0.00,,,0.00,WUHU216DAVISVP2,2013-01-21 03:40:00,
2013-01-20 20:45:00,51.0,27.9,30.10,North,0,0.0,0.0,41,0.00,,,0.00,WUHU216DAVISVP2,2013-01-21 03:45:00,
2013-01-20 20:50:00,51.0,27.9,30.11,North,0,0.0,0.0,41,0.00,,,0.00,WUHU216DAVISVP2,2013-01-21 03:50:00,
2013-01-20 20:55:00,51.3,27.6,30.11,North,0,0.0,0.0,40,0.00,,,0.00,WUHU216DAVISVP2,2013-01-21 03:55:00,
2013-01-20 21:00:00,51.4,27.7,30.11,North,0,0.0,0.0,40,0.00,,,0.00,WUHU216DAVISVP2,2013-01-21 04:00:00,
2013-01-20 21:05:00,51.5,27.8,30.11,North,0,0.0,0.0,40,0.00,,,0.00,WUHU216DAVISVP2,2013-01-21 04:05:00,
2013-01-20 21:10:00,51.5,27.8,30.11,North,0,0.0,0.0,40,0.00,,,0.00,WUHU216DAVISVP2,2013-01-21 04:10:00,
2013-01-20 21:15:00,51.3,27.0,30.11,North,0,0.0,0.0,39,0.00,,,0.00,WUHU216DAVISVP2,2013-01-21 04:15:00,
2013-01-20 21:20:00,50.4,26.8,30.11,North,0,0.0,0.0,40,0.00,,,0.00,WUHU216DAVISVP2,2013-01-21 04:20:00,
2013-01-20 21:25:00,49.5,27.2,30.12,North,0,0.0,0.0,42,0.00,,,0.00,WUHU216DAVISVP2,2013-01-21 04:25:00,
2013-01-20 21:31:00,48.8,27.1,30.12,North,0,0.0,0.0,43,0.00,,,0.00,WUHU216DAVISVP2,2013-01-21 04:31:00,
2013-01-20 21:36:00,49.0,26.7,30.12,North,0,0.0,0.0,42,0.00,,,0.00,WUHU216DAVISVP2,2013-01-21 04:36:00,
2013-01-20 21:41:00,49.9,26.3,30.12,North,0,0.0,0.0,40,0.00,,,0.00,WUHU216DAVISVP2,2013-01-21 04:41:00,
2013-01-20 21:46:00,50.4,26.2,30.12,North,0,0.0,0.0,39,0.00,,,0.00,WUHU216DAVISVP2,2013-01-21 04:46:00,
2013-01-20 21:51:00,50.5,25.6,30.12,North,0,0.0,0.0,38,0.00,,,0.00,WUHU216DAVISVP2,2013-01-21 04:51:00,
2013-01-20 21:56:00,49.9,25.7,30.12,North,0,0.0,0.0,39,0.00,,,0.00,WUHU216DAVISVP2,2013-01-21 04:56:00,
2013-01-20 22:01:00,49.6,25.4,30.12,North,0,0.0,0.0,39,0.00,,,0.00,WUHU216DAVISVP2,2013-01-21 05:01:00,
2013-01-20 22:06:00,50.0,25.8,30.12,North,0,0.0,0.0,39,0.00,,,0.00,WUHU216DAVISVP2,2013-01-21 05:06:00,
2013-01-20 22:12:00,50.2,25.3,30.12,North,0,0.0,0.0,38,0.00,,,0.00,WUHU216DAVISVP2,2013-01-21 05:12:00,
2013-01-20 22:17:00,50.2,25.3,30.12,North,0,0.0,0.0,38,0.00,,,0.00,WUHU216DAVISVP2,2013-01-21 05:17:00,
2013-01-20 22:22:00,50.4,25.5,30.12,North,0,0.0,0.0,38,0.00,,,0.00,WUHU216DAVISVP2,2013-01-21 05:22:00,
2013-01-20 22:27:00,50.7,25.8,30.12,North,0,0.0,0.0,38,0.00,,,0.00,WUHU216DAVISVP2,2013-01-21 05:27:00,
2013-01-20 22:32:00,50.9,26.0,30.12,North,0,0.0,0.0,38,0.00,,,0.00,WUHU216DAVISVP2,2013-01-21 05:32:00,
2013-01-20 22:37:00,50.9,26.0,30.12,North,0,0.0,0.0,38,0.00,,,0.00,WUHU216DAVISVP2,2013-01-21 05:37:00,
2013-01-20 22:42:00,50.9,26.0,30.13,North,0,0.0,0.0,38,0.00,,,0.00,WUHU216DAVISVP2,2013-01-21 05:42:00,
2013-01-20 22:47:00,50.5,25.6,30.13,North,0,0.0,0.0,38,0.00,,,0.00,WUHU216DAVISVP2,2013-01-21 05:47:00,
2013-01-20 22:52:00,50.1,26.5,30.13,North,0,0.0,0.0,40,0.00,,,0.00,WUHU216DAVISVP2,2013-01-21 05:52:00,
2013-01-20 22:57:00,49.8,26.3,30.13,North,0,0.0,0.0,40,0.00,,,0.00,WUHU216DAVISVP2,2013-01-21 05:57:00,
2013-01-20 23:02:00,48.9,26.0,30.13,North,0,0.0,0.0,41,0.00,,,0.00,WUHU216DAVISVP2,2013-01-21 06:02:00,
2013-01-20 23:07:00,49.4,26.5,30.12,North,0,0.0,0.0,41,0.00,,,0.00,WUHU216DAVISVP2,2013-01-21 06:07:00,
2013-01-20 23:12:00,49.7,26.8,30.12,North,0,0.0,0.0,41,0.00,,,0.00,WUHU216DAVISVP2,2013-01-21 06:12:00,
2013-01-20 23:18:00,49.6,26.7,30.12,North,0,0.0,0.0,41,0.00,,,0.00,WUHU216DAVISVP2,2013-01-21 06:18:00,
2013-01-20 23:23:00,49.4,26.5,30.12,North,0,0.0,0.0,41,0.00,,,0.00,WUHU216DAVISVP2,2013-01-21 06:23:00,
2013-01-20 23:28:00,49.8,26.9,30.12,North,0,0.0,0.0,41,0.00,,,0.00,WUHU216DAVISVP2,2013-01-21 06:28:00,
2013-01-20 23:33:00,50.0,26.4,30.13,North,0,0.0,0.0,40,0.00,,,0.00,WUHU216DAVISVP2,2013-01-21 06:33:00,
2013-01-20 23:38:00,50.2,26.6,30.12,North,0,0.0,0.0,40,0.00,,,0.00,WUHU216DAVISVP2,2013-01-21 06:38:00,
2013-01-20 23:43:00,50.2,26.6,30.12,North,0,0.0,0.0,40,0.00,,,0.00,WUHU216DAVISVP2,2013-01-21 06:43:00,
2013-01-20 23:48:00,49.9,27.0,30.12,North,0,0.0,0.0,41,0.00,,,0.00,WUHU216DAVISVP2,2013-01-21 06:48:00,
2013-01-20 23:53:00,49.0,26.7,30.12,North,0,0.0,0.0,42,0.00,,,0.00,WUHU216DAVISVP2,2013-01-21 06:53:00,
2013-01-20 23:58:00,48.1,26.5,30.12,North,0,0.0,0.0,43,0.00,,,0.00,WUHU216DAVISVP2,2013-01-21 06:58:00,